DELTA 1 DEB, 21550

Orbit data source: Space-Track

DELTA 1 DEB, 21550 is space debris in SSO originally from a launch on Thu, 12 Jun 1975 UTC launched from the Air Force Western Test Range (AFWTR). Debris objects in space refer to the collection of defunct objects orbiting the Earth. Examples of debris include non-operational satellites, rocket bodies, and fragments generated from explosions, collisions, or faulty payload assembly.

Loading next visibility...
Identifier
21550, 1975-052HE
Orbit
SSO
Country
Flag of USUS
Related business
Manufacturer
Unknown
Mission
Spacecraft
Bus & Motor
Unknown
Mass
Unknown
Launch date (UTC)
1975-06-12 (51 years ago)
Launch vehicle
Unknown
Launch site
Air Force Western Test Range (AFWTR)
Object type
Payload
Rocket body
Debris
Shape & HBR
Unknown shape, 0.1 m
Radar Cross Section
Small (<0.1 m²)

Expand to show TLE details & history
Last TLE update: 1 day ago

TLE from 1 day ago
0 DELTA 1 DEB
1 21550U 75052HE  25350.23096748  .00000637  00000-0  27074-2 0  9994
2 21550  99.8547 272.7469 0549804  16.2700 140.4465 12.45992045569678
Epoch: 2025-12-16T05:32Z
TLE epoch observation values (Epoch: 2025-12-16T05:32:35.590Z)
Latitude
19.1759°
Longitude
-72.07231°
Altitude
1,825.778 km
Speed
6.82 km/s
True Right ascension
06h 24m 46s
True Declination
19° 04' 60"
Sunlit
Object was in full shadow at epoch
Visualization orbit readout
Latitude
Unknown
Longitude
Unknown
Altitude
Unknown
Speed
Unknown
Apparent Right ascension
Unknown
Apparent Declination
Unknown
Sunlit
N/A
Visualization observer readout
Local Sidereal Time
08:09:05
Azimuth
Unknown
Elevation
Unknown
Doppler factor
Unknown
Orbital elements
Apogee altitude
1,910.717 km
Perigee altitude
1,046.768 km
Semi-major axis
7,856.879 km
Eccentricity
0.05498
Inclination
99.8547°
RAAN
272.7469°
Arg. of periapsis
16.27°
True anomaly
144.25346°
Mean anomaly
140.4465°
Eccentric anomaly
142.36986°
Mean motion
3.11651 °/min
Orbital period
115.51 mins
BSTAR
0.0027074
Loading maneuver chart data...
Computing Atmospheric mass density...

Documentation

Showing up to 5 results
|